�������l�o���
Date,Time,MP-1(��Sv/h),MP-2(��Sv/h),MP-3(��Sv/h),MP-4(��Sv/h),MP-5(��Sv/h),MP-6(��Sv/h),MP-7(��Sv/h),MP-8(��Sv/h),����,����(m/s),���J
2019/03/07,00:00,0.765,1.116,0.776,1.424,1.031,0.440,0.776,0.735,�k��,1.4,��
2019/03/07,00:10,0.765,1.115,0.774,1.424,1.033,0.440,0.777,0.737,�k��,1.5,��
2019/03/07,00:20,0.764,1.116,0.774,1.427,1.032,0.440,0.780,0.737,�k�k��,1.5,�L
2019/03/07,00:30,0.764,1.116,0.775,1.428,1.031,0.440,0.778,0.739,�k�k��,1.4,�L
2019/03/07,00:40,0.768,1.117,0.775,1.424,1.029,0.439,0.778,0.739,�k�k��,1.5,�L
2019/03/07,00:50,0.766,1.116,0.773,1.426,1.030,0.440,0.777,0.738,�k�k��,2.3,�L
2019/03/07,01:00,0.764,1.117,0.773,1.426,1.032,0.439,0.779,0.735,�k�k��,1.9,�L
2019/03/07,01:10,0.766,1.115,0.774,1.425,1.031,0.441,0.779,0.738,�k�k��,3.2,�L
2019/03/07,01:20,0.766,1.114,0.774,1.425,1.029,0.440,0.780,0.737,�k,4.3,�L
2019/03/07,01:30,0.764,1.115,0.774,1.427,1.033,0.441,0.779,0.738,�k,4.1,�L
2019/03/07,01:40,0.765,1.116,0.775,1.425,1.032,0.442,0.779,0.738,�k,4.2,�L
2019/03/07,01:50,0.766,1.115,0.774,1.427,1.026,0.440,0.778,0.736,�k,4.4,�L
2019/03/07,02:00,0.764,1.114,0.774,1.425,1.031,0.442,0.779,0.738,�k,3.9,�L
2019/03/07,02:10,0.766,1.114,0.774,1.425,1.029,0.441,0.780,0.737,�k,3.4,�L
2019/03/07,02:20,0.765,1.114,0.774,1.425,1.031,0.441,0.778,0.737,�k,3.0,�L
2019/03/07,02:30,0.765,1.111,0.776,1.426,1.029,0.440,0.779,0.737,�k,3.4,�L
2019/03/07,02:40,0.764,1.110,0.772,1.424,1.029,0.441,0.778,0.737,�k,4.0,�L
2019/03/07,02:50,0.762,1.109,0.772,1.423,1.027,0.440,0.777,0.735,�k,4.5,�L
2019/03/07,03:00,0.761,1.107,0.772,1.425,1.025,0.441,0.775,0.736,�k,5.3,�L
2019/03/07,03:10,0.762,1.105,0.770,1.425,1.023,0.440,0.776,0.735,�k�k��,6.4,�L
2019/03/07,03:20,0.758,1.105,0.770,1.421,1.020,0.440,0.775,0.735,�k�k��,6.7,�L
2019/03/07,03:30,0.758,1.097,0.769,1.421,1.019,0.441,0.774,0.735,�k�k��,7.2,�L
2019/03/07,03:40,0.760,1.097,0.769,1.417,1.017,0.440,0.773,0.734,�k�k��,6.2,�L
2019/03/07,03:50,0.757,1.096,0.765,1.416,1.017,0.438,0.773,0.733,�k�k��,6.7,�L
2019/03/07,04:00,0.755,1.094,0.766,1.417,1.014,0.439,0.772,0.735,�k�k��,8.3,�L
2019/03/07,04:10,0.756,1.091,0.765,1.412,1.011,0.438,0.774,0.732,�k�k��,7.7,�L
2019/03/07,04:20,0.752,1.089,0.765,1.413,1.012,0.438,0.771,0.731,�k�k��,8.2,�L
2019/03/07,04:30,0.753,1.089,0.763,1.410,1.009,0.437,0.770,0.731,�k,7.3,�L
2019/03/07,04:40,0.750,1.082,0.758,1.405,1.006,0.437,0.771,0.732,�k�k��,8.1,�L
2019/03/07,04:50,0.746,1.080,0.760,1.404,1.005,0.436,0.769,0.731,�k�k��,7.3,�L
2019/03/07,05:00,0.747,1.081,0.759,1.400,1.000,0.436,0.767,0.730,�k�k��,7.0,�L
2019/03/07,05:10,0.745,1.076,0.757,1.398,1.000,0.435,0.768,0.731,�k,6.9,�L
2019/03/07,05:20,0.745,1.075,0.757,1.394,0.999,0.435,0.766,0.730,�k�k��,6.9,�L
2019/03/07,05:30,0.740,1.074,0.756,1.395,0.997,0.434,0.766,0.728,�k,6.9,�L
2019/03/07,05:40,0.741,1.071,0.753,1.390,0.994,0.434,0.766,0.727,�k�k��,7.5,�L
2019/03/07,05:50,0.739,1.070,0.751,1.387,0.993,0.434,0.766,0.728,�k�k��,4.1,�L
2019/03/07,06:00,0.740,1.069,0.752,1.382,0.989,0.433,0.766,0.726,�k�k��,5.9,�L
2019/03/07,06:10,0.739,1.064,0.752,1.381,0.992,0.435,0.765,0.725,�k�k��,3.6,�L
2019/03/07,06:20,0.738,1.062,0.749,1.376,0.986,0.433,0.764,0.726,�k��,3.3,�L
2019/03/07,06:30,0.738,1.061,0.750,1.375,0.986,0.432,0.764,0.725,�k��,9.5,�L
2019/03/07,06:40,0.736,1.060,0.750,1.373,0.986,0.433,0.764,0.724,�k��,8.4,�L
2019/03/07,06:50,0.738,1.060,0.748,1.373,0.985,0.431,0.762,0.724,�k��,3.2,�L
2019/03/07,07:00,0.739,1.057,0.750,1.370,0.982,0.433,0.762,0.723,�k�k��,8.2,�L
2019/03/07,07:10,0.738,1.059,0.748,1.370,0.981,0.435,0.761,0.724,�k��,6.3,�L
2019/03/07,07:20,0.738,1.058,0.749,1.370,0.980,0.433,0.762,0.722,�k�k��,6.4,�L
2019/03/07,07:30,0.740,1.059,0.748,1.375,0.983,0.434,0.761,0.726,�k,7.2,�L
2019/03/07,07:40,0.740,1.057,0.749,1.371,0.984,0.434,0.762,0.724,�k,9.9,�L
2019/03/07,07:50,0.739,1.060,0.750,1.374,0.982,0.433,0.762,0.724,�k,9.9,�L
2019/03/07,08:00,0.738,1.060,0.749,1.375,0.983,0.433,0.762,0.725,�k�k��,9.7,�L
2019/03/07,08:10,0.740,1.058,0.749,1.375,0.982,0.433,0.761,0.725,�k�k��,8.9,�L
2019/03/07,08:20,0.738,1.060,0.748,1.369,0.981,0.434,0.761,0.725,�k,7.3,�L
2019/03/07,08:30,0.738,1.059,0.748,1.373,0.982,0.434,0.763,0.722,�k�k��,7.0,�L
2019/03/07,08:40,0.738,1.056,0.748,1.370,0.979,0.435,0.761,0.726,�k�k��,6.9,�L
2019/03/07,08:50,0.738,1.061,0.750,1.371,0.981,0.433,0.762,0.724,�k,8.3,�L
2019/03/07,09:00,0.739,1.061,0.749,1.372,0.983,0.434,0.763,0.725,�k�k��,9.7,�L
2019/03/07,09:10,0.737,1.058,0.749,1.372,0.981,0.435,0.763,0.724,�k�k��,10.6,�L
2019/03/07,09:20,0.737,1.061,0.750,1.369,0.982,0.434,0.763,0.726,�k�k��,10.7,�L
2019/03/07,09:30,0.740,1.062,0.751,1.374,0.983,0.433,0.763,0.725,�k,9.5,�L
2019/03/07,09:40,0.739,1.062,0.750,1.374,0.985,0.433,0.764,0.725,�k,9.3,�L
2019/03/07,09:50,0.740,1.063,0.750,1.376,0.988,0.433,0.763,0.725,�k,9.3,�L
2019/03/07,10:00,0.739,1.065,0.750,1.374,0.987,0.434,0.765,0.725,�k,9.8,�L
2019/03/07,10:10,0.740,1.063,0.748,1.374,0.985,0.432,0.762,0.725,�k,10.5,�L
2019/03/07,10:20,0.739,1.060,0.748,1.374,0.984,0.432,0.761,0.725,�k,7.3,�L
2019/03/07,10:30,0.741,1.060,0.749,1.374,0.982,0.432,0.762,0.726,�k,8.3,�L
2019/03/07,10:40,0.738,1.058,0.746,1.375,0.983,0.430,0.761,0.727,�k,8.1,�L
2019/03/07,10:50,0.739,1.060,0.748,1.374,0.982,0.433,0.761,0.725,�k,8.4,�L
2019/03/07,11:00,0.740,1.064,0.747,1.375,0.984,0.432,0.762,0.725,�k,7.4,�L
2019/03/07,11:10,0.741,1.060,0.747,1.373,0.980,0.432,0.762,0.725,�k,7.7,�L
2019/03/07,11:20,0.736,1.059,0.746,1.373,0.982,0.431,0.762,0.724,�k,7.8,�L
2019/03/07,11:30,0.737,1.058,0.747,1.373,0.983,0.432,0.764,0.725,�k�k��,7.6,�L
2019/03/07,11:40,0.737,1.058,0.748,1.372,0.979,0.431,0.763,0.723,�k,8.1,�L
2019/03/07,11:50,0.739,1.058,0.747,1.371,0.981,0.432,0.763,0.725,�k,8.2,�L
2019/03/07,12:00,0.739,1.062,0.748,1.374,0.980,0.433,0.762,0.726,�k�k��,10.2,�L
2019/03/07,12:10,0.739,1.061,0.749,1.374,0.984,0.430,0.762,0.725,�k�k��,8.5,�L
2019/03/07,12:20,0.740,1.060,0.747,1.376,0.980,0.430,0.762,0.727,�k�k��,8.2,�L
2019/03/07,12:30,0.738,1.061,0.748,1.375,0.983,0.430,0.762,0.724,�k�k��,8.3,�L
2019/03/07,12:40,0.737,1.060,0.747,1.376,0.983,0.432,0.764,0.726,�k,8.2,�L
2019/03/07,12:50,0.736,1.060,0.748,1.375,0.983,0.431,0.760,0.724,�k,7.9,�L
2019/03/07,13:00,0.739,1.061,0.748,1.375,0.983,0.430,0.762,0.726,�k,10.0,�L
2019/03/07,13:10,0.739,1.059,0.748,1.376,0.983,0.431,0.762,0.727,�k,10.3,�L
2019/03/07,13:20,0.739,1.062,0.747,1.376,0.984,0.431,0.763,0.725,�k,9.9,�L
2019/03/07,13:30,0.737,1.060,0.747,1.376,0.982,0.431,0.765,0.725,�k,10.6,�L
2019/03/07,13:40,0.738,1.059,0.748,1.375,0.983,0.430,0.765,0.724,�k,9.4,�L
2019/03/07,13:50,0.738,1.059,0.749,1.376,0.981,0.431,0.764,0.725,�k,10.0,�L
2019/03/07,14:00,0.736,1.061,0.751,1.376,0.983,0.431,0.763,0.723,�k,9.8,�L
2019/03/07,14:10,0.737,1.063,0.748,1.377,0.984,0.431,0.763,0.725,�k,9.4,�L
2019/03/07,14:20,0.738,1.063,0.749,1.376,0.985,0.430,0.763,0.726,�k,9.7,�L
2019/03/07,14:30,0.736,1.064,0.749,1.378,0.987,0.430,0.764,0.724,�k�k��,6.3,�L
2019/03/07,14:40,0.736,1.061,0.748,1.378,0.984,0.431,0.763,0.725,�k,5.8,�L
2019/03/07,14:50,0.737,1.064,0.749,1.375,0.984,0.432,0.765,0.725,�k,6.1,�L
2019/03/07,15:00,0.740,1.062,0.748,1.377,0.986,0.432,0.764,0.724,�k,7.0,�L
2019/03/07,15:10,0.739,1.063,0.748,1.376,0.983,0.432,0.764,0.724,�k,7.3,�L
2019/03/07,15:20,0.737,1.060,0.748,1.378,0.982,0.431,0.765,0.723,�k,8.4,�L
2019/03/07,15:30,0.739,1.061,0.748,1.376,0.984,0.431,0.763,0.727,�k,10.8,�L
2019/03/07,15:40,0.738,1.062,0.748,1.376,0.983,0.431,0.763,0.725,�k,10.3,�L
2019/03/07,15:50,0.737,1.062,0.748,1.377,0.983,0.432,0.763,0.724,�k,10.6,�L
2019/03/07,16:00,0.737,1.062,0.749,1.375,0.983,0.430,0.762,0.725,�k,10.2,�L
2019/03/07,16:10,0.737,1.062,0.749,1.377,0.984,0.432,0.763,0.726,�k,9.3,�L
2019/03/07,16:20,0.738,1.062,0.747,1.375,0.981,0.429,0.764,0.722,�k,8.3,�L
2019/03/07,16:30,0.735,1.064,0.747,1.374,0.982,0.430,0.763,0.726,�k�k��,8.5,�L
2019/03/07,16:40,0.736,1.064,0.746,1.374,0.982,0.431,0.763,0.726,�k�k��,10.2,�L
2019/03/07,16:50,0.738,1.065,0.748,1.378,0.983,0.430,0.763,0.724,�k,9.8,�L
2019/03/07,17:00,0.736,1.065,0.746,1.374,0.984,0.430,0.764,0.724,�k�k��,9.8,�L
2019/03/07,17:10,0.735,1.064,0.749,1.374,0.985,0.430,0.762,0.724,�k�k��,11.3,�L
2019/03/07,17:20,0.736,1.062,0.746,1.374,0.982,0.431,0.763,0.725,�k,10.5,�L
2019/03/07,17:30,0.736,1.061,0.746,1.373,0.983,0.430,0.763,0.725,�k�k��,10.8,�L
2019/03/07,17:40,0.734,1.061,0.746,1.374,0.981,0.431,0.765,0.725,�k�k��,11.8,�L
2019/03/07,17:50,0.736,1.058,0.746,1.373,0.979,0.429,0.763,0.724,�k�k��,11.6,�L
2019/03/07,18:00,0.735,1.059,0.746,1.373,0.979,0.431,0.762,0.724,�k�k��,10.6,�L
2019/03/07,18:10,0.735,1.056,0.746,1.374,0.979,0.429,0.762,0.725,�k�k��,11.3,�L
2019/03/07,18:20,0.737,1.061,0.743,1.372,0.977,0.430,0.760,0.725,�k�k��,10.7,�L
2019/03/07,18:30,0.735,1.058,0.743,1.371,0.980,0.430,0.762,0.725,�k�k��,10.2,�L
2019/03/07,18:40,0.735,1.058,0.741,1.371,0.982,0.429,0.761,0.725,�k�k��,10.5,�L
2019/03/07,18:50,0.735,1.058,0.747,1.374,0.980,0.432,0.762,0.723,�k�k��,9.6,�L
2019/03/07,19:00,0.736,1.059,0.746,1.373,0.982,0.430,0.762,0.723,�k,9.2,�L
2019/03/07,19:10,0.735,1.060,0.745,1.370,0.979,0.430,0.761,0.726,�k,8.7,�L
2019/03/07,19:20,0.736,1.059,0.744,1.369,0.978,0.433,0.761,0.724,�k,7.2,�L
2019/03/07,19:30,0.736,1.059,0.744,1.369,0.977,0.433,0.761,0.723,�k,5.6,�L
2019/03/07,19:40,0.738,1.059,0.745,1.366,0.978,0.433,0.761,0.723,�k�k��,6.3,�L
2019/03/07,19:50,0.737,1.059,0.745,1.366,0.977,0.434,0.761,0.724,�k,6.9,�L
2019/03/07,20:00,0.735,1.058,0.744,1.364,0.974,0.434,0.762,0.722,�k�k��,5.8,�L
2019/03/07,20:10,0.735,1.058,0.748,1.365,0.975,0.433,0.760,0.725,�k��,7.3,�L
2019/03/07,20:20,0.734,1.058,0.745,1.362,0.976,0.434,0.760,0.722,�k�k��,8.5,�L
2019/03/07,20:30,0.734,1.057,0.745,1.361,0.975,0.434,0.759,0.721,�k�k��,8.9,�L
2019/03/07,20:40,0.733,1.055,0.745,1.358,0.973,0.434,0.759,0.723,�k�k��,8.3,�L
2019/03/07,20:50,0.735,1.057,0.744,1.361,0.976,0.433,0.758,0.721,�k�k��,7.7,�L
2019/03/07,21:00,0.733,1.058,0.744,1.362,0.976,0.430,0.758,0.723,�k�k��,7.1,�L
2019/03/07,21:10,0.736,1.061,0.746,1.362,0.976,0.429,0.758,0.722,�k�k��,6.9,�L
2019/03/07,21:20,0.735,1.057,0.745,1.361,0.976,0.431,0.759,0.720,�k,6.6,�L
2019/03/07,21:30,0.735,1.060,0.745,1.363,0.975,0.429,0.760,0.722,�k�k��,7.4,�L
2019/03/07,21:40,0.736,1.062,0.744,1.362,0.974,0.430,0.759,0.723,�k�k��,5.2,�L
2019/03/07,21:50,0.733,1.061,0.745,1.364,0.977,0.429,0.758,0.721,�k�k��,7.1,�L
2019/03/07,22:00,0.735,1.061,0.743,1.364,0.977,0.427,0.758,0.721,�k�k��,6.7,�L
2019/03/07,22:10,0.733,1.061,0.744,1.367,0.976,0.428,0.758,0.722,�k�k��,5.9,�L
2019/03/07,22:20,0.732,1.062,0.744,1.366,0.977,0.428,0.758,0.723,�k�k��,5.3,�L
2019/03/07,22:30,0.734,1.062,0.744,1.366,0.977,0.428,0.758,0.721,�k�k��,5.9,�L
2019/03/07,22:40,0.733,1.062,0.744,1.365,0.975,0.428,0.758,0.721,�k�k��,6.1,�L
2019/03/07,22:50,0.734,1.061,0.744,1.366,0.980,0.426,0.758,0.721,�k��,5.6,�L
2019/03/07,23:00,0.732,1.061,0.744,1.366,0.980,0.427,0.760,0.722,�k�k��,5.7,�L
2019/03/07,23:10,0.735,1.064,0.743,1.367,0.976,0.428,0.758,0.723,�k�k��,5.3,�L
2019/03/07,23:20,0.735,1.063,0.742,1.365,0.979,0.426,0.760,0.721,�k�k��,6.0,�L
2019/03/07,23:30,0.734,1.063,0.745,1.370,0.980,0.427,0.759,0.721,�k�k��,6.5,�L
2019/03/07,23:40,0.736,1.064,0.744,1.369,0.977,0.428,0.759,0.721,�k�k��,6.4,�L
2019/03/07,23:50,0.735,1.062,0.745,1.366,0.978,0.427,0.760,0.723,�k�k��,6.3,�L
